Winona, MN

7:20 PM CDT on May 22, 2018 (GMT -0500)
Winona Municipal-Conrad

Weather History for KONA - November, 2011

Change the Weather History Date:

Tuesday, November 8, 2011

  Actual Average Record
Temperature  
Mean Temperature 42 °F -  
Max Temperature 46 °F 42 °F 78 °F (1999)
Min Temperature 37 °F 26 °F 0 °F (1991)
Degree Days  
Heating Degree Days 24    
Moisture  
Dew Point 28 °F    
Average Humidity 59    
Maximum Humidity 81    
Minimum Humidity 50    
Precipitation  
Precipitation 0.00 in - - ()
Sea Level Pressure  
Sea Level Pressure 30.15 in    
Wind  
Wind Speed 2 mph (NNE)    
Max Wind Speed 6 mph    
Max Gust Speed -    
Visibility 10 miles    
Events      
Averages and records for this station are not official NWS values.
T = Trace of Precipitation, MM = Missing Value Source: NWS Daily Summary

Daily Weather History Graph

Daily Weather History Graph

Search for Another Location

Airport or City:

Astronomy

Nov. 08, 2011 Rise Set
Actual Time 6:52 AM CST 4:48 PM CST
Civil Twilight 6:21 AM CST 5:18 PM CST
Nautical Twilight 5:47 AM CST 5:53 PM CST
Astronomical Twilight 5:13 AM CST 6:27 PM CST
Moon 3:29 PM CST (11/8) 4:49 AM CST (11/8)
Length of Visible Light 10h 56m
Length of Day
9h 55m
Waxing Gibbous, 96% of the Moon is Illuminated
Nov 8
Waxing Gibbous
Nov 10
Full
Nov 18
Last Quarter
Nov 25
New
Dec 2
First Quarter

Hourly Weather History & Observations

Time (CST) Temp. Windchill Dew Point Humidity Pressure Visibility Wind Dir Wind Speed Gust Speed Precip Events Conditions
12:15 AM 39.2 °F - 30.2 °F 70% 30.21 in 10.0 mi Calm Calm - N/A   Clear
12:35 AM 37.4 °F - 30.2 °F 75% 30.21 in 10.0 mi Calm Calm - N/A   Clear
12:54 AM 37.4 °F - 32.0 °F 81% 30.20 in 10.0 mi Calm Calm - N/A   Clear
1:15 AM 39.2 °F 37.0 °F 28.4 °F 65% 30.20 in 10.0 mi NNW 3.5 mph - N/A   Scattered Clouds
1:35 AM 37.4 °F - 28.4 °F 70% 30.19 in 10.0 mi Calm Calm - N/A   Scattered Clouds
1:54 AM 39.2 °F 37.0 °F 28.4 °F 65% 30.20 in 10.0 mi NW 3.5 mph - N/A   Clear
2:14 AM 39.2 °F - 28.4 °F 65% 30.19 in 10.0 mi Calm Calm - N/A   Scattered Clouds
2:35 AM 39.2 °F - 28.4 °F 65% 30.18 in 10.0 mi Calm Calm - N/A   Scattered Clouds
2:54 AM 39.2 °F - 28.4 °F 65% 30.17 in 10.0 mi Calm Calm - N/A   Clear
3:14 AM 39.2 °F - 28.4 °F 65% 30.17 in 10.0 mi Calm Calm - N/A   Clear
3:35 AM 41.0 °F - 30.2 °F 65% 30.16 in 10.0 mi Calm Calm - N/A   Clear
3:55 AM 39.2 °F - 30.2 °F 70% 30.16 in 10.0 mi Calm Calm - N/A   Clear
4:15 AM 41.0 °F 39.0 °F 26.6 °F 57% 30.17 in 10.0 mi NE 3.5 mph - N/A   Clear
4:35 AM 41.0 °F 39.0 °F 26.6 °F 57% 30.16 in 10.0 mi NE 3.5 mph - N/A   Clear
4:54 AM 41.0 °F 39.0 °F 26.6 °F 57% 30.15 in 10.0 mi ENE 3.5 mph - N/A   Scattered Clouds
5:14 AM 41.0 °F 37.1 °F 24.8 °F 53% 30.15 in 10.0 mi NE 5.8 mph - N/A   Clear
5:35 AM 41.0 °F 37.1 °F 26.6 °F 57% 30.15 in 10.0 mi NE 5.8 mph - N/A   Mostly Cloudy
5:55 AM 41.0 °F 38.0 °F 26.6 °F 57% 30.16 in 10.0 mi NNE 4.6 mph - N/A   Overcast
6:14 AM 41.0 °F - 26.6 °F 57% 30.16 in 10.0 mi Calm Calm - N/A   Overcast
6:35 AM 41.0 °F - 26.6 °F 57% 30.15 in 10.0 mi Calm Calm - N/A   Overcast
6:54 AM 41.0 °F 38.0 °F 26.6 °F 57% 30.15 in 10.0 mi NE 4.6 mph - N/A   Overcast
7:14 AM 41.0 °F - 26.6 °F 57% 30.16 in 10.0 mi Calm Calm - N/A   Overcast
7:35 AM 41.0 °F - 26.6 °F 57% 30.16 in 10.0 mi Calm Calm - N/A   Overcast
8:14 AM 41.0 °F 37.1 °F 26.6 °F 57% 30.14 in 10.0 mi NE 5.8 mph - N/A   Overcast
8:35 AM 41.0 °F 39.0 °F 26.6 °F 57% 30.13 in 10.0 mi ENE 3.5 mph - N/A   Mostly Cloudy
8:54 AM 42.8 °F 40.1 °F 26.6 °F 53% 30.14 in 10.0 mi NE 4.6 mph - N/A   Overcast
9:14 AM 42.8 °F 40.1 °F 26.6 °F 53% 30.14 in 10.0 mi NE 4.6 mph - N/A   Overcast
9:35 AM 42.8 °F 40.1 °F 28.4 °F 57% 30.14 in 10.0 mi North 4.6 mph - N/A   Overcast
9:55 AM 42.8 °F 40.1 °F 26.6 °F 53% 30.14 in 10.0 mi NNE 4.6 mph - N/A   Overcast
10:14 AM 42.8 °F 39.3 °F 28.4 °F 57% 30.15 in 10.0 mi NNE 5.8 mph - N/A   Overcast
10:35 AM 42.8 °F 41.1 °F 28.4 °F 57% 30.16 in 10.0 mi North 3.5 mph - N/A   Overcast
10:54 AM 42.8 °F 40.1 °F 28.4 °F 57% 30.16 in 10.0 mi NNE 4.6 mph - N/A   Overcast
11:14 AM 44.6 °F 42.2 °F 28.4 °F 53% 30.16 in 10.0 mi North 4.6 mph - N/A   Overcast
11:35 AM 44.6 °F 42.2 °F 28.4 °F 53% 30.14 in 10.0 mi NNE 4.6 mph - N/A   Mostly Cloudy
11:55 AM 44.6 °F 42.2 °F 28.4 °F 53% 30.14 in 10.0 mi NNE 4.6 mph - N/A   Mostly Cloudy
12:15 PM 44.6 °F 43.1 °F 30.2 °F 57% 30.13 in 10.0 mi North 3.5 mph - N/A   Overcast
12:35 PM 46.4 °F 45.2 °F 28.4 °F 50% 30.13 in 10.0 mi NNE 3.5 mph - N/A   Mostly Cloudy
12:54 PM 44.6 °F 42.2 °F 28.4 °F 53% 30.13 in 10.0 mi NE 4.6 mph - N/A   Mostly Cloudy
1:15 PM 44.6 °F 43.1 °F 30.2 °F 57% 30.12 in 10.0 mi North 3.5 mph - N/A   Overcast
1:35 PM 44.6 °F 43.1 °F 30.2 °F 57% 30.12 in 7.0 mi NNE 3.5 mph - N/A   Mostly Cloudy
1:54 PM 44.6 °F 43.1 °F 30.2 °F 57% 30.11 in 10.0 mi North 3.5 mph - N/A   Mostly Cloudy
2:15 PM 44.6 °F 43.1 °F 30.2 °F 57% 30.10 in 10.0 mi North 3.5 mph - N/A   Mostly Cloudy
2:34 PM 44.6 °F 43.1 °F 30.2 °F 57% 30.10 in 7.0 mi North 3.5 mph - N/A   Mostly Cloudy
2:55 PM 44.6 °F 42.2 °F 30.2 °F 57% 30.10 in 10.0 mi North 4.6 mph - N/A   Overcast
3:15 PM 44.6 °F 41.4 °F 30.2 °F 57% 30.10 in 10.0 mi NE 5.8 mph - N/A   Overcast
3:34 PM 44.6 °F 41.4 °F 30.2 °F 57% 30.10 in 10.0 mi NE 5.8 mph - N/A   Overcast
3:55 PM 44.6 °F 42.2 °F 30.2 °F 57% 30.11 in 10.0 mi NE 4.6 mph - N/A   Overcast
4:15 PM 44.6 °F 43.1 °F 28.4 °F 53% 30.11 in 10.0 mi NE 3.5 mph - N/A   Overcast
4:35 PM 44.6 °F 42.2 °F 28.4 °F 53% 30.11 in 10.0 mi NNE 4.6 mph - N/A   Mostly Cloudy
5:15 PM 42.8 °F - 30.2 °F 61% 30.11 in 10.0 mi Calm Calm - N/A   Overcast
5:34 PM 42.8 °F - 30.2 °F 61% 30.11 in 10.0 mi Calm Calm - N/A   Overcast
5:55 PM 42.8 °F 41.1 °F 30.2 °F 61% 30.12 in 10.0 mi North 3.5 mph - N/A   Overcast
6:15 PM 42.8 °F - 28.4 °F 57% 30.12 in 10.0 mi Calm Calm - N/A   Overcast
6:35 PM 42.8 °F - 28.4 °F 57% 30.12 in 10.0 mi Calm Calm - N/A   Overcast
6:55 PM 42.8 °F 40.1 °F 28.4 °F 57% 30.12 in 10.0 mi North 4.6 mph - N/A   Overcast
7:34 PM 42.8 °F 41.1 °F 28.4 °F 57% 30.12 in 10.0 mi NNE 3.5 mph - N/A   Overcast
7:55 PM 42.8 °F 41.1 °F 28.4 °F 57% 30.12 in 10.0 mi NNE 3.5 mph - N/A   Overcast
8:15 PM 42.8 °F - 28.4 °F 57% 30.12 in 10.0 mi Calm Calm - N/A   Overcast
8:34 PM 42.8 °F 41.1 °F 26.6 °F 53% 30.14 in 10.0 mi ENE 3.5 mph - N/A   Overcast
8:55 PM 42.8 °F 40.1 °F 26.6 °F 53% 30.14 in 10.0 mi NE 4.6 mph - N/A   Scattered Clouds
9:15 PM 42.8 °F 41.1 °F 26.6 °F 53% 30.14 in 10.0 mi NE 3.5 mph - N/A   Scattered Clouds
9:34 PM 42.8 °F 38.6 °F 26.6 °F 53% 30.13 in 10.0 mi NNE 6.9 mph - N/A   Scattered Clouds
9:54 PM 42.8 °F 38.0 °F 26.6 °F 53% 30.11 in 10.0 mi NNE 8.1 mph - N/A   Mostly Cloudy
10:15 PM 42.8 °F - 26.6 °F 53% 30.10 in 10.0 mi Calm Calm - N/A   Mostly Cloudy
10:35 PM 42.8 °F - 28.4 °F 57% 30.10 in 10.0 mi Calm Calm - N/A   Mostly Cloudy
10:54 PM 41.0 °F 39.0 °F 28.4 °F 61% 30.10 in 10.0 mi WNW 3.5 mph - N/A   Mostly Cloudy
11:15 PM 41.0 °F 38.0 °F 28.4 °F 61% 30.08 in 10.0 mi NW 4.6 mph - N/A   Scattered Clouds
11:34 PM 41.0 °F 38.0 °F 28.4 °F 61% 30.08 in 10.0 mi WNW 4.6 mph - N/A   Scattered Clouds
11:54 PM 41.0 °F 38.0 °F 28.4 °F 61% 30.07 in 10.0 mi WNW 4.6 mph - N/A   Mostly Cloudy